Weather in Narodnoe

Russia / Voronezh Oblast     51°34′44″N   41°48′06″E
temp.,
°C
wind,
m/s
gust,
m/s
humid.,
%
clouds,
%
prec.,
mm/h
press.,
hPa
HPBL,
m
25 february, thu
thu2500:00−17s489691 0.2 1038281
03:00−15ssw499595 0.4 1035344
06:00−13ssw51094100 0.5 1032422
09:00−11sw71194100 1.5 1029480
12:00−8sw81394100 1.3 1026495
15:00−5sw81593100 2.9 1022457
18:00−2wsw81595100 0.9 1018518
21:00+1w61299100 1.3 1017319
26 february, fri
fri2600:00+1w51199100 0.1 1016285
03:00+1w511100100 0.4 1017288
06:00+1wnw4999100 0.2 1016266
09:00+1w51099100 0.4 1016276
12:00+2w59100100 0.0 1014211
15:00+2w613100100 0.0 1014339
18:00+2w71498100 0.1 1011419
21:00+2wsw61399100 0.5 1010356
27 february, sat
sat2700:00+2w61397100 0.1 1008468
03:00+1w51294100 0.1 1008508
06:00+1w61195100 0.0 1007434
09:00+1w61198100 0.1 1006529
12:00+1w610100100 0.1 1005553
15:00+1w61099100 0.1 1005549
18:000w51098100 0.3 1004443
21:000w51097100 0.3 1004493
28 february, sun
sun2800:000wnw61198100 0.5 1004586
03:00−8nw7118899 0.8 1007667
06:00−10nnw71189100 0.1 1010634
09:00−10nnw61090100 0.2 1012605
12:00−10nnw6989100 0.1 1014588
15:00−9nnw6989100 0.1 1015612
18:00−11nnw5991100 0.1 1017581
21:00−11nnw4993100 0.1 1020438
1 march, mon
mon100:00−12nnw389581 0.0 1022316
03:00−12nnw379577 0.0 1023229
06:00−13nnw389511 0.0 1025226
09:00−12nnw469212 0.0 1026315
12:00−10nnw468861 0.0 1028444
15:00−9nnw468977 0.0 1028437
18:00−10nw369459 0.0 1029135
21:00−10nw239651 0.0 103061